Flag for Chile Weather past 2 weeks in Valdivia, Chile

Now
73 °F

Broken clouds.


Feels Like: 77 °F
Forecast: 51 / 70 °F
Wind: 10 mph from North

Location: Puerto Montt Airport

Current Time: Mar 6, 2015 at 3:39:09 PM

Latest Report: Mar 6, 2015 at 3:00 PM


Visibility: N/A

Pressure: 29.86 "Hg

Humidity: 53%

Dew point: 55 °F

Location of ValdiviaLocation

Historic Weather in Valdivia — Graph

°F

Valdivia temperature yesterday

Maximum temperature yesterday: 66 °F (at 7:00 PM)
Minimum temperature yesterday: 45 °F (at 3:00 AM)
Average temperature yesterday: 55 °F

Past Weeks' High & Low Weather Summary

 TemperatureHumidityPressure
High84 °F (Feb 22, 6:00 PM)100% (Feb 22, 5:00 AM)30.15 "Hg (Feb 22, 5:00 AM)
Low37 °F (Mar 4, 5:00 AM)31% (Mar 4, 5:00 PM)29.86 "Hg (Mar 2, 6:00 AM)
Average57 °F79%30.02 "Hg
* Reported Feb 19 2:00 PM — Mar 6 2:00 PM, Valdivia, Weather by CustomWeather, © 2015

Note: Actual official high and low records may vary slightly from our data, if they occured in-between our weather recording intervals... More about our weather records

Advertising

Valdivia weather history for previous 24 hours

 ConditionsComfort  
Time TempWeatherWind HumidityBarometerVisibility
2:00 PM
Fri, Mar 6
72 °FBroken clouds.12 mph61%29.86 "HgN/A
1:00 PM72 °FBroken clouds.10 mph61%29.89 "HgN/A
12:00 PM68 °FBroken clouds.8 mph69%29.89 "HgN/A
11:00 AM64 °FBroken clouds.7 mph78%29.89 "HgN/A
10:00 AM57 °FPartly sunny.5 mph100%29.89 "HgN/A
9:00 AM55 °FFog.1 mph94%29.89 "Hg0 mi
8:00 AM48 °FFog.1 mph100%29.89 "Hg0 mi
7:00 AM48 °FFog.No wind100%29.92 "Hg2 mi
6:00 AM57 °FFog.1 mph88%29.92 "Hg12 mi
5:00 AM52 °FFog.No wind94%29.92 "Hg1 mi
4:00 AM54 °FPassing clouds.No wind94%29.92 "Hg3 mi
3:00 AM55 °FPassing clouds.No wind94%29.95 "Hg3 mi
2:00 AM57 °FPassing clouds.1 mph94%29.95 "Hg3 mi
1:00 AM59 °FOvercast.No wind88%29.95 "Hg3 mi
12:00 AM61 °FOvercast.1 mph83%29.95 "Hg4 mi
10:00 PM
Thu, Mar 5
61 °FOvercast.3 mph83%29.98 "HgN/A
9:00 PM61 °FOvercast.6 mph83%29.98 "HgN/A
8:00 PM63 °FPartly sunny.6 mph77%29.98 "HgN/A
7:00 PM66 °FBroken clouds.6 mph56%29.98 "HgN/A
6:00 PM64 °FBroken clouds.5 mph68%29.98 "HgN/A
5:00 PM63 °FPartly sunny.6 mph73%30.01 "HgN/A
4:00 PM61 °FDrizzle. Broken clouds.5 mph77%30.04 "Hg4 mi
3:00 PM57 °FPartly sunny.7 mph88%30.04 "HgN/A
Weather by CustomWeather, © 2015

See weather overviewHow to use our weather pages